Ankeny, IA

10:31 PM CST on November 19, 2019 (GMT -0600)
Ankeny Regional

Weather History for KIKV - September, 2019

Change the Weather History Date:

Tuesday, September 3, 2019

  Actual Average (KDSM) Record (KDSM)
Temperature  
Mean Temperature 75 °F -  
Max Temperature 84 °F 80 °F 101 °F (1939)
Min Temperature 66 °F 61 °F 40 °F (1974)
Cooling Degree Days 10    
Growing Degree Days 25 (Base 50)    
Moisture  
Dew Point 66 °F    
Average Humidity 72    
Maximum Humidity 88    
Minimum Humidity 51    
Precipitation  
Precipitation 0.00 in - - ()
Sea Level Pressure  
Sea Level Pressure 29.92 in    
Wind  
Wind Speed 9 mph ()    
Max Wind Speed 16 mph    
Max Gust Speed 25 mph    
Visibility 10.0 miles    
Events      
Averages and records for this station are not official NWS values.
T = Trace of Precipitation, MM = Missing Value Source: Averaged Metar Reports

Daily Weather History Graph

Daily Weather History Graph

Search for Another Location

Airport or City:

Astronomy

Sep. 03, 2019 Rise Set
Actual Time 6:42 AM CDT 7:44 PM CDT
Civil Twilight 6:13 AM CDT 8:12 PM CDT
Nautical Twilight 5:39 AM CDT 8:46 PM CDT
Astronomical Twilight 5:04 AM CDT 9:22 PM CDT
Moon 11:39 AM CDT (9/3) 10:37 PM CDT (9/3)
Length of Visible Light 13h 59m
Length of Day
13h 02m
Waxing Crescent, 25% of the Moon is Illuminated
Sep 3
Waxing Crescent
Sep 5
First Quarter
Sep 13
Full
Sep 21
Last Quarter
Sep 28
New

Hourly Weather History & Observations

Time (CDT) Temp. Heat Index Dew Point Humidity Pressure Visibility Wind Dir Wind Speed Gust Speed Precip Events Conditions
12:15 AM 73.4 °F - 69.8 °F 88% 29.91 in 10.0 mi South 9.2 mph 15.0 mph N/A   Clear
12:35 AM 73.4 °F - 69.8 °F 88% 29.91 in 10.0 mi South 6.9 mph 15.0 mph N/A   Clear
12:55 AM 73.4 °F - 69.8 °F 88% 29.90 in 10.0 mi South 8.1 mph 15.0 mph N/A   Clear
1:15 AM 73.4 °F - 69.8 °F 88% 29.90 in 10.0 mi South 8.1 mph 15.0 mph N/A   Clear
1:35 AM 73.4 °F - 69.8 °F 88% 29.89 in 10.0 mi South 9.2 mph - N/A   Clear
1:55 AM 73.4 °F - 69.8 °F 88% 29.88 in 10.0 mi South 9.2 mph 16.1 mph N/A   Clear
2:15 AM 73.4 °F - 69.8 °F 88% 29.87 in 10.0 mi South 12.7 mph - N/A   Clear
2:35 AM 73.4 °F - 69.8 °F 88% 29.86 in 10.0 mi South 11.5 mph 18.4 mph N/A   Clear
2:55 AM 73.4 °F - 69.8 °F 88% 29.85 in 10.0 mi South 9.2 mph 18.4 mph N/A   Clear
3:15 AM 73.4 °F - 69.8 °F 88% 29.84 in 10.0 mi South 11.5 mph 18.4 mph N/A   Clear
3:35 AM 73.4 °F - 69.8 °F 88% 29.83 in 10.0 mi SSW 11.5 mph 20.7 mph N/A   Clear
3:55 AM 73.4 °F - 69.8 °F 88% 29.83 in 10.0 mi SSW 12.7 mph - N/A   Clear
4:15 AM 73.4 °F - 69.8 °F 88% 29.82 in 10.0 mi SSW 13.8 mph - N/A   Clear
4:35 AM 75.2 °F - 69.8 °F 83% 29.82 in 10.0 mi SSW 11.5 mph 20.7 mph N/A   Clear
4:55 AM 75.2 °F - 69.8 °F 83% 29.82 in 10.0 mi SSW 10.4 mph 17.3 mph N/A   Clear
5:15 AM 75.2 °F - 69.8 °F 83% 29.82 in 10.0 mi SW 10.4 mph 18.4 mph N/A   Clear
5:35 AM 75.2 °F - 69.8 °F 83% 29.83 in 10.0 mi WSW 6.9 mph - N/A   Clear
5:55 AM 75.2 °F - 69.8 °F 83% 29.84 in 10.0 mi WSW 11.5 mph - N/A   Clear
6:35 AM 75.2 °F - 69.8 °F 83% 29.84 in 10.0 mi SW 10.4 mph - N/A   Clear
6:55 AM 75.2 °F - 69.8 °F 83% 29.85 in 10.0 mi WSW 8.1 mph - N/A   Clear
7:15 AM 75.2 °F - 69.8 °F 83% 29.86 in 10.0 mi WSW 9.2 mph 16.1 mph N/A   Mostly Cloudy
7:35 AM 75.2 °F - 69.8 °F 83% 29.86 in 10.0 mi WSW 10.4 mph - N/A   Overcast
7:55 AM 77.0 °F - 69.8 °F 78% 29.86 in 10.0 mi WSW 10.4 mph - N/A   Overcast
8:15 AM 77.0 °F - 69.8 °F 78% 29.86 in 10.0 mi WSW 9.2 mph 16.1 mph N/A   Mostly Cloudy
8:35 AM 77.0 °F - 71.6 °F 83% 29.87 in 10.0 mi West 11.5 mph 20.7 mph N/A   Partly Cloudy
8:55 AM 78.8 °F - 71.6 °F 78% 29.87 in 10.0 mi West 15.0 mph 20.7 mph N/A   Scattered Clouds
9:15 AM 78.8 °F - 71.6 °F 78% 29.87 in 10.0 mi West 11.5 mph 18.4 mph N/A   Mostly Cloudy
9:35 AM 80.6 °F 84.6 °F 71.6 °F 74% 29.87 in 10.0 mi WNW 13.8 mph 20.7 mph N/A   Clear
9:55 AM 78.8 °F - 71.6 °F 78% 29.87 in 10.0 mi West 12.7 mph - N/A   Clear
10:15 AM 80.6 °F 85.4 °F 73.4 °F 79% 29.87 in 10.0 mi West 12.7 mph - N/A   Clear
10:35 AM 82.4 °F 88.2 °F 73.4 °F 74% 29.90 in 10.0 mi West 13.8 mph - N/A   Clear
10:55 AM 80.6 °F 85.4 °F 73.4 °F 79% 29.89 in 10.0 mi WSW 8.1 mph 17.3 mph N/A   Clear
11:15 AM 80.6 °F 85.4 °F 73.4 °F 79% 29.91 in 10.0 mi NW 11.5 mph 17.3 mph N/A   Clear
11:35 AM 80.6 °F 85.4 °F 73.4 °F 79% 29.91 in 10.0 mi NW 11.5 mph - N/A   Clear
11:55 AM 82.4 °F 88.2 °F 73.4 °F 74% 29.93 in 10.0 mi NW 16.1 mph - N/A   Clear
12:15 PM 82.4 °F 87.2 °F 71.6 °F 70% 29.91 in 10.0 mi NW 5.8 mph 12.7 mph N/A   Clear
12:35 PM 82.4 °F 86.3 °F 69.8 °F 66% 29.91 in 10.0 mi NW 4.6 mph - N/A   Clear
12:55 PM 84.2 °F 88.4 °F 69.8 °F 62% 29.90 in 10.0 mi Calm Calm - N/A   Clear
1:15 PM 82.4 °F 85.4 °F 68.0 °F 62% 29.91 in 10.0 mi NW 5.8 mph - N/A   Clear
1:35 PM 82.4 °F 84.6 °F 66.2 °F 58% 29.90 in 10.0 mi Calm Calm - N/A   Clear
1:55 PM 82.4 °F 87.2 °F 71.6 °F 70% 29.92 in 10.0 mi West 8.1 mph - N/A   Clear
2:15 PM 80.6 °F 82.7 °F 66.2 °F 61% 29.90 in 10.0 mi NW 8.1 mph - N/A   Clear
2:35 PM 78.8 °F - 69.8 °F 74% 29.93 in 10.0 mi WNW 15.0 mph - N/A   Clear
2:55 PM 77.0 °F - 64.4 °F 65% 29.92 in 10.0 mi WNW 15.0 mph 25.3 mph N/A   Clear
3:15 PM 77.0 °F - 62.6 °F 61% 29.93 in 10.0 mi WNW 15.0 mph 21.9 mph N/A   Clear
3:35 PM 78.8 °F - 64.4 °F 61% 29.93 in 10.0 mi WNW 16.1 mph - N/A   Clear
3:55 PM 78.8 °F - 62.6 °F 57% 29.93 in 10.0 mi West 13.8 mph - N/A   Clear
4:15 PM 78.8 °F - 64.4 °F 61% 29.93 in 10.0 mi West 10.4 mph 17.3 mph N/A   Clear
4:35 PM 80.6 °F 81.8 °F 62.6 °F 54% 29.93 in 10.0 mi West 13.8 mph 20.7 mph N/A   Clear
4:55 PM 80.6 °F 82.3 °F 64.4 °F 58% 29.94 in 10.0 mi WNW 12.7 mph 19.6 mph N/A   Clear
5:15 PM 80.6 °F 82.7 °F 66.2 °F 61% 29.94 in 10.0 mi WNW 12.7 mph - N/A   Clear
5:35 PM 80.6 °F 82.7 °F 66.2 °F 61% 29.94 in 10.0 mi WNW 15.0 mph - N/A   Clear
5:55 PM 80.6 °F 81.8 °F 62.6 °F 54% 29.95 in 10.0 mi WNW 13.8 mph - N/A   Clear
6:15 PM 80.6 °F 81.8 °F 62.6 °F 54% 29.95 in 10.0 mi WNW 11.5 mph 19.6 mph N/A   Clear
6:35 PM 78.8 °F - 60.8 °F 54% 29.96 in 10.0 mi WNW 10.4 mph - N/A   Clear
6:55 PM 78.8 °F - 59.0 °F 51% 29.96 in 10.0 mi WNW 10.4 mph 17.3 mph N/A   Clear
7:15 PM 77.0 °F - 59.0 °F 54% 29.97 in 10.0 mi NW 10.4 mph - N/A   Clear
7:35 PM 77.0 °F - 60.8 °F 57% 29.98 in 10.0 mi NW 11.5 mph - N/A   Clear
7:55 PM 75.2 °F - 59.0 °F 57% 29.99 in 10.0 mi NW 9.2 mph - N/A   Clear
8:15 PM 73.4 °F - 57.2 °F 57% 29.99 in 10.0 mi NW 8.1 mph - N/A   Clear
8:35 PM 73.4 °F - 57.2 °F 57% 30.00 in 10.0 mi NW 8.1 mph - N/A   Clear
8:55 PM 73.4 °F - 55.4 °F 53% 30.01 in 10.0 mi NW 11.5 mph - N/A   Clear
9:15 PM 71.6 °F - 55.4 °F 57% 30.02 in 10.0 mi NW 11.5 mph - N/A   Clear
9:35 PM 71.6 °F - 55.4 °F 57% 30.02 in 10.0 mi NW 10.4 mph 16.1 mph N/A   Clear
9:55 PM 69.8 °F - 55.4 °F 60% 30.03 in 10.0 mi NW 10.4 mph - N/A   Clear
10:15 PM 69.8 °F - 55.4 °F 60% 30.04 in 10.0 mi NW 9.2 mph - N/A   Clear
10:35 PM 68.0 °F - 55.4 °F 64% 30.05 in 10.0 mi NW 8.1 mph 15.0 mph N/A   Clear
10:55 PM 68.0 °F - 55.4 °F 64% 30.05 in 10.0 mi NW 9.2 mph - N/A   Clear
11:15 PM 66.2 °F - 55.4 °F 68% 30.05 in 10.0 mi NNW 8.1 mph - N/A   Clear
11:35 PM 66.2 °F - 55.4 °F 68% 30.06 in 10.0 mi NNW 6.9 mph - N/A   Clear
11:55 PM 66.2 °F - 55.4 °F 68% 30.07 in 10.0 mi NW 6.9 mph - N/A   Clear